Sauk Centre, MN

11:07 AM CST on December 12, 2019 (GMT -0600)
Sauk Centre

Weather History for KD39 - September, 2019

Change the Weather History Date:

Tuesday, September 24, 2019

  Actual Average (KGHW) Record (KGHW)
Temperature  
Mean Temperature 58 °F -  
Max Temperature 68 °F 67 °F 82 °F (1956)
Min Temperature 48 °F 40 °F 29 °F (1951)
Degree Days  
Heating Degree Days 7    
Growing Degree Days 8 (Base 50)    
Moisture  
Dew Point 54 °F    
Average Humidity 84    
Maximum Humidity 94    
Minimum Humidity 64    
Precipitation  
Precipitation 0.00 in - - ()
Sea Level Pressure  
Sea Level Pressure 29.70 in    
Wind  
Wind Speed 3 mph ()    
Max Wind Speed 9 mph    
Max Gust Speed -    
Visibility 9.9 miles    
Events      
Averages and records for this station are not official NWS values.
T = Trace of Precipitation, MM = Missing Value Source: Averaged Metar Reports

Daily Weather History Graph

Daily Weather History Graph

Search for Another Location

Airport or City:

Astronomy

Sep. 24, 2019 Rise Set
Actual Time 7:08 AM CDT 7:13 PM CDT
Civil Twilight 6:39 AM CDT 7:43 PM CDT
Nautical Twilight 6:04 AM CDT 8:18 PM CDT
Astronomical Twilight 5:28 AM CDT 8:53 PM CDT
Moon 1:36 AM CDT (9/24) 5:17 PM CDT (9/24)
Length of Visible Light 13h 04m
Length of Day
12h 04m
Waning Crescent, 23% of the Moon is Illuminated
Sep 24
Waning Crescent
Sep 28
New
Oct 5
First Quarter
Oct 13
Full
Oct 21
Last Quarter

Hourly Weather History & Observations

Time (CDT) Temp. Dew Point Humidity Pressure Visibility Wind Dir Wind Speed Gust Speed Precip Events Conditions
12:59 AM 53.6 °F 50.0 °F 88% 29.87 in 10.0 mi South 5.8 mph - N/A   Clear
1:59 AM 53.6 °F 48.2 °F 82% 29.85 in 10.0 mi South 4.6 mph - N/A   Clear
2:59 AM 53.6 °F 50.0 °F 88% 29.83 in 10.0 mi Calm Calm - N/A   Clear
3:59 AM 51.8 °F 48.2 °F 88% 29.81 in 10.0 mi Calm Calm - N/A   Clear
4:59 AM 51.8 °F 48.2 °F 88% 29.79 in 10.0 mi Calm Calm - N/A   Clear
5:59 AM 50.0 °F 48.2 °F 94% 29.78 in 10.0 mi Calm Calm - N/A   Clear
6:59 AM 48.2 °F 46.4 °F 93% 29.76 in 10.0 mi Calm Calm - N/A   Clear
7:59 AM 50.0 °F 48.2 °F 94% 29.74 in 10.0 mi ESE 3.5 mph - N/A   Clear
8:59 AM 57.2 °F 55.4 °F 94% 29.72 in 10.0 mi SSE 4.6 mph - N/A   Clear
9:59 AM 60.8 °F 57.2 °F 88% 29.72 in 10.0 mi Calm Calm - N/A   Clear
10:59 AM 64.4 °F 59.0 °F 83% 29.72 in 7.0 mi Calm Calm - N/A   Clear
11:59 AM 68.0 °F 59.0 °F 73% 29.71 in 10.0 mi NW 4.6 mph - N/A   Clear
12:59 PM 68.0 °F 57.2 °F 68% 29.69 in 10.0 mi NNE 3.5 mph - N/A   Clear
2:59 PM 68.0 °F 55.4 °F 64% 29.62 in 10.0 mi East 6.9 mph - N/A   Clear
3:59 PM 68.0 °F 57.2 °F 68% 29.64 in 10.0 mi ESE 6.9 mph - N/A   Clear
4:59 PM 66.2 °F 57.2 °F 73% 29.62 in 10.0 mi Calm Calm - N/A   Scattered Clouds
5:59 PM 66.2 °F 59.0 °F 78% 29.62 in 10.0 mi NW 3.5 mph - N/A   Clear
6:59 PM 64.4 °F 57.2 °F 77% 29.60 in 10.0 mi NW 4.6 mph - N/A   Clear
7:59 PM 60.8 °F 57.2 °F 88% 29.59 in 10.0 mi Calm Calm - N/A   Clear
8:59 PM 59.0 °F 57.2 °F 94% 29.59 in 10.0 mi Calm Calm - N/A   Clear
9:59 PM 59.0 °F 55.4 °F 88% 29.58 in 10.0 mi West 3.5 mph - N/A   Mostly Cloudy
10:59 PM 60.8 °F 55.4 °F 82% 29.58 in 10.0 mi West 9.2 mph - N/A   Scattered Clouds
11:59 PM 57.2 °F 53.6 °F 88% 29.60 in 10.0 mi West 6.9 mph - N/A   Scattered Clouds